BREEZE-M R/B, 43433

Orbit data source: Space-Track

BREEZE-M R/B, 43433 is space debris in GEO originally from a launch on Wed, 18 Apr 2018 UTC launched from the Tyuratam Missile And Space Complex (TTMTR). Debris objects in space refer to the collection of defunct objects orbiting the Earth. Examples of debris include non-operational satellites, rocket bodies, and fragments generated from explosions, collisions, or faulty payload assembly.

Loading next visibility...
BREEZE-M R/B details
Identifier
43433, 2018-037B
Orbit
GEO
Last TLE update16 hours ago
Origin
Flag of CISKhrunichev (CIS)
ManufacturerKhrunichev
MissionSpacecraft
Bus & MotorBRIZ, Unknown motor
Mass~1,600 kg wet, 1,600 kg dry
Launch date (UTC)
2018-04-18 (7 years ago)
Launch vehicleUnknown
Launch site
Tyuratam Missile And Space Complex (TTMTR)
Object type
Payload
Rocket body
Debris
Shape & HBRCyl, 4 m
Radar Cross Section14.451 m²

Expand to show TLE details & history

TLE from 16 hours ago
0 BREEZE-M R/B
1 43433U 18037B   24361.16906048 -.00000111  00000-0  00000-0 0  9990
2 43433   6.6096  76.9674 0691273  15.6628 346.2183  0.90514007 22334
Epoch: 2024-12-26T04:03Z
Definitive object data (Epoch: 2024-12-26T04:03:26.825Z)
Latitude-0°
Longitude-79.23309°
Altitude35,731.73 km
Speed3.178 km/s
True Right ascension05h 07m 07s
True Declination0° 00' 00"
Sunlit
Object was in daylight at TLE epoch
Visualization TLE readout
Latitude-4.23338°
Longitude140.32262°
Altitude41,594.573 km
Speed2.791 km/s
Apparent Right ascension19h 45m 35s
Apparent Declination-10° 02' 52"
Sunlit
Object is in daylight
Visualization observer readout
Local Sidereal Time19:43:10
Azimuth179.221° S
Elevation40.033°
Doppler factor1
Orbital elements
Apogee altitude41,886.636 km
Perigee altitude35,645.258 km
Semi-major axis45,144.084 km
Eccentricity0.0691273
Inclination6.6096°
RAAN76.9674°
Arg. of periapsis15.6628°
True anomaly344.15952°
Mean anomaly346.2183°
Eccentric anomaly345.20702°
Mean motion0.22628 °/min
BSTARUnknown
Orbital period1590.96 mins
Loading historical data...
43433 neighbors
Authenticating...
Loading maneuver chart data...
Loading historical data...
Loading historical data...
Loading historical data...
Loading historical data...
Loading historical data...
Loading historical data...
Loading historical data...
Other satellites on launch #37 in the year 2018 (2018-04-18 UTC)

BREEZE-M R/B Visibility forecast

Observer location: undefined°, undefined

Span
Click to sort rows by Start time (UTC) header in descending order
Start Az.
Max El. time (UTC)
Max El. Az.
Max El.
End time (UTC)
End Az.
1440 mins2024-12-26 20:20:21.659Z179.221° S2024-12-27 12:20:21.659Z200.899° SSW37.319°2024-12-27 20:20:21.659Z221.448° SW
|